This demonstration page uses our WeatherBlox Daily Observations layout. Learn more.

Left ArrowRight Arrow

Hourly Observations for May 27, 2020

Temp ( °F °C ) Dew Point ( °F °C ) Humidity (%) Winds ( mph kmh ) Pressure ( in mb ) Visibility ( mi km ) Precip ( " mm )
12:53 am 00:53 Clear 69 20.6 68 20 96 96 Calm 30.00 1016 10 16 0.00 0.00
1:53 am 01:53 Mostly Clear 69 20.6 68 20 96 96 Calm 29.99 1016 10 16 0.00 0.00
2:53 am 02:53 Clear 69 20.6 67 19.4 93 93 Calm 29.99 1016 10 16 0.00 0.00
3:53 am 03:53 Mostly Cloudy 69 20.6 68 20 96 96 Calm 29.99 1016 10 16 0.00 0.00
4:16 am 04:16 Cloudy with Nearby Thunderstorms 72 22.2 68 20 87 87 VRB 3 6 29.99 1016 10 16 0.00 0.00
4:24 am 04:24 Cloudy with Thunderstorms 72 22.2 69 20.6 91 91 VRB 3 6 30.00 1016 3 5 0.05 1.27
4:27 am 04:27 Cloudy with Strong Thunderstorms 71 21.7 69 20.6 94 94 Calm 30.00 1016 2 3 0.09 2.29
4:38 am 04:38 Cloudy with Nearby Thunderstorms 71 21.7 69 20.6 94 94 Calm 30.00 1016 3 4 0.14 3.56
4:42 am 04:42 Cloudy with Thunderstorms 71 21.7 69 20.6 94 94 NNW 3 6 30.00 1016 4 6 0.14 3.56
4:53 am 04:53 Cloudy with Thunderstorms 70 21.1 69 20.6 97 97 W 8 13 30.00 1016 10 16 0.15 3.81
4:59 am 04:59 Cloudy 70 21.1 68 20 93 93 W 5 7 30.00 1016 10 16 0.00 0.00
5:53 am 05:53 Cloudy 69 20.6 68 20 96 96 Calm 30.01 1016 10 16 0.00 0.00
6:53 am 06:53 Mostly Cloudy 68 20 67 19.4 96 96 Calm 30.02 1017 9 14 0.00 0.00
7:53 am 07:53 Mostly Cloudy 69 20.6 69 20.6 100 100 Calm 30.02 1017 9 14 0.00 0.00
8:53 am 08:53 Mostly Cloudy 71 21.7 69 20.6 94 94 Calm 30.03 1017 10 16 0.00 0.00
9:12 am 09:12 Mostly Cloudy 72 22.2 69 20.6 91 91 Calm 30.02 1017 10 16 0.00 0.00
9:53 am 09:53 Mostly Cloudy 75 23.9 70 21.1 84 84 E 3 6 30.02 1017 10 16 0.00 0.00
10:53 am 10:53 Mostly Sunny 79 26.1 67 19.4 67 67 Calm 30.01 1016 10 16 0.00 0.00
11:53 am 11:53 Mostly Cloudy 80 26.7 66 18.9 62 62 VRB 5 7 30.01 1016 10 16 0.00 0.00
12:53 pm 12:53 Mostly Cloudy 81 27.2 66 18.9 61 61 Calm 30.00 1016 10 16 0.00 0.00
1:53 pm 13:53 Mostly Cloudy 82 27.8 66 18.9 58 58 Calm 29.98 1015 10 16 0.00 0.00
2:53 pm 14:53 Cloudy 82 27.8 65 18.3 56 56 Calm 29.97 1015 10 16 0.00 0.00
3:53 pm 15:53 Cloudy 81 27.2 65 18.3 58 58 VRB 3 6 29.95 1014 10 16 0.00 0.00
4:53 pm 16:53 Cloudy 78 25.6 67 19.4 69 69 SW 7 11 29.96 1015 10 16 0.00 0.00
5:53 pm 17:53 Cloudy 78 25.6 67 19.4 69 69 WSW 5 7 29.96 1015 10 16 0.00 0.00
6:53 pm 18:53 Mostly Sunny 78 25.6 65 18.3 64 64 Calm 29.96 1014 10 16 0.00 0.00
7:53 pm 19:53 Sunny 76 24.4 71 21.7 85 85 Calm 29.96 1015 10 16 0.00 0.00
8:53 pm 20:53 Sunny 73 22.8 69 20.6 87 87 Calm 29.95 1014 10 16 0.00 0.00
9:53 pm 21:53 Clear 70 21.1 69 20.6 97 97 Calm 29.96 1015 10 16 0.00 0.00
10:53 pm 22:53 Clear 69 20.6 67 19.4 93 93 Calm 29.96 1015 10 16 0.00 0.00
11:53 pm 23:53 Partly Cloudy 69 20.6 67 19.4 93 93 Calm 29.96 1014 10 16 0.00 0.00

Powered by AerisWeather